Time,TemperatureF,DewpointF,PressureIn,WindDirection,WindDirectionDegrees,WindSpeedMPH,WindSpeedGustMPH,Humidity,HourlyPrecipIn,Conditions,Clouds,dailyrainin,SoftwareType,DateUTC
2013-07-20 00:33:00,52.0,-99.9,29.89,WNW,295,10.0,16.0,-999,-99.99,,,-99.99,,2013-07-20 07:33:00,
2013-07-20 00:44:00,52.0,-99.9,29.89,WNW,294,10.0,17.0,-999,-99.99,,,-99.99,,2013-07-20 07:44:00,
2013-07-20 00:54:00,52.0,-99.9,29.89,NW,307,10.0,15.0,-999,-99.99,,,-99.99,,2013-07-20 07:54:00,
2013-07-20 01:02:00,52.0,-99.9,29.89,WNW,293,9.0,15.0,-999,-99.99,,,-99.99,,2013-07-20 08:02:00,
2013-07-20 01:22:00,52.0,-99.9,29.89,WNW,300,9.0,17.0,-999,-99.99,,,-99.99,,2013-07-20 08:22:00,
2013-07-20 01:52:00,52.0,-99.9,29.89,WNW,295,10.0,16.0,-999,-99.99,,,-99.99,,2013-07-20 08:52:00,
2013-07-20 02:02:00,52.0,-99.9,29.88,WNW,298,9.0,14.0,-999,-99.99,,,-99.99,,2013-07-20 09:02:00,
2013-07-20 02:11:00,52.0,-99.9,29.88,WNW,294,9.0,16.0,-999,-99.99,,,-99.99,,2013-07-20 09:11:00,
2013-07-20 02:33:00,52.0,-99.9,29.88,WNW,289,9.0,15.0,-999,-99.99,,,-99.99,,2013-07-20 09:33:00,
2013-07-20 02:43:00,51.0,-99.9,29.88,WNW,291,10.0,18.0,-999,-99.99,,,-99.99,,2013-07-20 09:43:00,
2013-07-20 03:01:00,51.0,-99.9,29.88,WNW,291,10.0,14.0,-999,-99.99,,,-99.99,,2013-07-20 10:01:00,
2013-07-20 03:11:00,51.0,-99.9,29.87,WNW,283,9.0,14.0,-999,-99.99,,,-99.99,,2013-07-20 10:11:00,
2013-07-20 03:32:00,51.0,-99.9,29.87,WNW,291,8.0,15.0,-999,-99.99,,,-99.99,,2013-07-20 10:32:00,
2013-07-20 03:42:00,51.0,-99.9,29.87,WNW,294,6.0,12.0,-999,-99.99,,,-99.99,,2013-07-20 10:42:00,
2013-07-20 04:02:00,51.0,-99.9,29.86,WNW,289,7.0,11.0,-999,-99.99,,,-99.99,,2013-07-20 11:02:00,
2013-07-20 04:11:00,51.0,-99.9,29.86,WNW,289,7.0,14.0,-999,-99.99,,,-99.99,,2013-07-20 11:11:00,
2013-07-20 04:32:00,51.0,-99.9,29.86,WNW,294,7.0,13.0,-999,-99.99,,,-99.99,,2013-07-20 11:32:00,
2013-07-20 04:43:00,51.0,-99.9,29.85,WNW,295,7.0,12.0,-999,-99.99,,,-99.99,,2013-07-20 11:43:00,
2013-07-20 05:01:00,51.0,-99.9,29.85,WNW,301,6.0,10.0,-999,-99.99,,,-99.99,,2013-07-20 12:01:00,
2013-07-20 05:32:00,50.0,-99.9,29.85,WNW,290,6.0,11.0,-999,-99.99,,,-99.99,,2013-07-20 12:32:00,
2013-07-20 05:52:00,50.0,-99.9,29.85,WNW,286,5.0,10.0,-999,-99.99,,,-99.99,,2013-07-20 12:52:00,
2013-07-20 06:02:00,50.0,-99.9,29.85,WNW,286,5.0,10.0,-999,-99.99,,,-99.99,,2013-07-20 13:02:00,
2013-07-20 07:02:00,50.0,-99.9,29.85,WNW,285,8.0,14.0,-999,-99.99,,,-99.99,,2013-07-20 14:02:00,
2013-07-20 08:01:00,50.0,-99.9,29.86,West,274,4.0,11.0,-999,-99.99,,,-99.99,,2013-07-20 15:01:00,
2013-07-20 08:33:00,50.0,-99.9,29.86,WNW,294,5.0,9.0,-999,-99.99,,,-99.99,,2013-07-20 15:33:00,
2013-07-20 08:44:00,50.0,-99.9,29.86,West,277,6.0,10.0,-999,-99.99,,,-99.99,,2013-07-20 15:44:00,
2013-07-20 09:02:00,51.0,-99.9,29.87,WNW,283,8.0,11.0,-999,-99.99,,,-99.99,,2013-07-20 16:02:00,
2013-07-20 09:32:00,51.0,-99.9,29.87,WNW,292,5.0,12.0,-999,-99.99,,,-99.99,,2013-07-20 16:32:00,
2013-07-20 09:44:00,51.0,-99.9,29.87,WNW,285,5.0,9.0,-999,-99.99,,,-99.99,,2013-07-20 16:44:00,
2013-07-20 09:52:00,51.0,-99.9,29.87,WNW,287,8.0,11.0,-999,-99.99,,,-99.99,,2013-07-20 16:52:00,
2013-07-20 10:02:00,51.0,-99.9,29.87,WNW,297,6.0,12.0,-999,-99.99,,,-99.99,,2013-07-20 17:02:00,
2013-07-20 10:22:00,51.0,-99.9,29.87,WNW,291,7.0,14.0,-999,-99.99,,,-99.99,,2013-07-20 17:22:00,
2013-07-20 10:43:00,51.0,-99.9,29.87,WNW,297,6.0,12.0,-999,-99.99,,,-99.99,,2013-07-20 17:43:00,
2013-07-20 10:53:00,51.0,-99.9,29.87,WNW,294,6.0,12.0,-999,-99.99,,,-99.99,,2013-07-20 17:53:00,
2013-07-20 11:01:00,51.0,-99.9,29.87,West,269,6.0,11.0,-999,-99.99,,,-99.99,,2013-07-20 18:01:00,
2013-07-20 11:38:00,51.0,-99.9,29.87,WNW,295,8.0,13.0,-999,-99.99,,,-99.99,,2013-07-20 18:38:00,
2013-07-20 11:47:00,52.0,-99.9,29.87,NW,305,6.0,14.0,-999,-99.99,,,-99.99,,2013-07-20 18:47:00,
2013-07-20 11:59:00,52.0,-99.9,29.87,WNW,286,8.0,13.0,-999,-99.99,,,-99.99,,2013-07-20 18:59:00,
2013-07-20 12:06:00,52.0,-99.9,29.87,WNW,291,8.0,14.0,-999,-99.99,,,-99.99,,2013-07-20 19:06:00,
2013-07-20 13:06:00,53.0,-99.9,29.86,WNW,285,8.0,14.0,-999,-99.99,,,-99.99,,2013-07-20 20:06:00,
2013-07-20 13:35:00,53.0,-99.9,29.86,WNW,292,6.0,11.0,-999,-99.99,,,-99.99,,2013-07-20 20:35:00,
2013-07-20 13:58:00,53.0,-99.9,29.86,WNW,285,7.0,12.0,-999,-99.99,,,-99.99,,2013-07-20 20:58:00,
2013-07-20 14:08:00,53.0,-99.9,29.86,WNW,301,7.0,15.0,-999,-99.99,,,-99.99,,2013-07-20 21:08:00,
2013-07-20 14:36:00,53.0,-99.9,29.85,WNW,302,8.0,15.0,-999,-99.99,,,-99.99,,2013-07-20 21:36:00,
2013-07-20 14:57:00,53.0,-99.9,29.85,WNW,300,7.0,14.0,-999,-99.99,,,-99.99,,2013-07-20 21:57:00,
2013-07-20 15:18:00,53.0,-99.9,29.85,WNW,296,9.0,14.0,-999,-99.99,,,-99.99,,2013-07-20 22:18:00,
2013-07-20 15:38:00,53.0,-99.9,29.84,WNW,286,9.0,16.0,-999,-99.99,,,-99.99,,2013-07-20 22:38:00,
2013-07-20 15:50:00,53.0,-99.9,29.84,WNW,297,10.0,16.0,-999,-99.99,,,-99.99,,2013-07-20 22:50:00,
2013-07-20 16:06:00,54.0,-99.9,29.83,WNW,292,9.0,15.0,-999,-99.99,,,-99.99,,2013-07-20 23:06:00,
2013-07-20 16:17:00,54.0,-99.9,29.83,WNW,292,9.0,15.0,-999,-99.99,,,-99.99,,2013-07-20 23:17:00,
2013-07-20 16:40:00,54.0,-99.9,29.83,WNW,301,8.0,15.0,-999,-99.99,,,-99.99,,2013-07-20 23:40:00,
2013-07-20 16:47:00,54.0,-99.9,29.82,WNW,295,9.0,19.0,-999,-99.99,,,-99.99,,2013-07-20 23:47:00,
2013-07-20 16:58:00,54.0,-99.9,29.81,WNW,283,9.0,17.0,-999,-99.99,,,-99.99,,2013-07-20 23:58:00,
2013-07-20 17:09:00,54.0,-99.9,29.81,WNW,300,9.0,15.0,-999,-99.99,,,-99.99,,2013-07-21 00:09:00,
2013-07-20 17:18:00,54.0,-99.9,29.81,WNW,300,9.0,15.0,-999,-99.99,,,-99.99,,2013-07-21 00:18:00,
2013-07-20 17:24:00,54.0,-99.9,29.80,WNW,296,9.0,15.0,-999,-99.99,,,-99.99,,2013-07-21 00:24:00,
2013-07-20 17:45:00,54.0,-99.9,29.80,WNW,293,8.0,16.0,-999,-99.99,,,-99.99,,2013-07-21 00:45:00,
2013-07-20 18:38:00,54.0,-99.9,29.78,WNW,297,9.0,17.0,-999,-99.99,,,-99.99,,2013-07-21 01:38:00,
2013-07-20 18:49:00,-999.0,-99.9,29.78,WNW,285,9.0,16.0,-999,-99.99,,,-99.99,,2013-07-21 01:49:00,
2013-07-20 19:00:00,54.0,-99.9,29.78,WNW,290,8.0,16.0,-999,-99.99,,,-99.99,,2013-07-21 02:00:00,
2013-07-20 19:19:00,54.0,-99.9,29.78,WNW,286,8.0,15.0,-999,-99.99,,,-99.99,,2013-07-21 02:19:00,
2013-07-20 19:39:00,54.0,-99.9,29.77,NW,307,6.0,12.0,-999,-99.99,,,-99.99,,2013-07-21 02:39:00,
2013-07-20 19:47:00,54.0,-99.9,29.77,WNW,286,6.0,10.0,-999,-99.99,,,-99.99,,2013-07-21 02:47:00,
2013-07-20 19:58:00,54.0,-99.9,29.77,WNW,298,5.0,9.0,-999,-99.99,,,-99.99,,2013-07-21 02:58:00,
2013-07-20 20:05:00,53.0,-99.9,29.77,WNW,287,5.0,13.0,-999,-99.99,,,-99.99,,2013-07-21 03:05:00,
2013-07-20 20:37:00,53.0,-99.9,29.77,NW,304,3.0,9.0,-999,-99.99,,,-99.99,,2013-07-21 03:37:00,
2013-07-20 20:47:00,52.0,-99.9,29.78,WNW,283,4.0,7.0,-999,-99.99,,,-99.99,,2013-07-21 03:47:00,
2013-07-20 21:00:00,52.0,-99.9,29.78,WNW,282,2.0,7.0,-999,-99.99,,,-99.99,,2013-07-21 04:00:00,
2013-07-20 21:01:00,52.0,-99.9,29.78,West,266,3.0,9.0,-999,-99.99,,,-99.99,,2013-07-21 04:01:00,
2013-07-20 21:11:00,52.0,-99.9,29.78,WNW,295,3.0,6.0,-999,-99.99,,,-99.99,,2013-07-21 04:11:00,
2013-07-20 21:33:00,51.0,-99.9,29.78,WNW,295,3.0,8.0,-999,-99.99,,,-99.99,,2013-07-21 04:33:00,
2013-07-20 21:43:00,51.0,-99.9,29.78,West,268,3.0,6.0,-999,-99.99,,,-99.99,,2013-07-21 04:43:00,
2013-07-20 21:53:00,51.0,-99.9,29.78,West,264,3.0,6.0,-999,-99.99,,,-99.99,,2013-07-21 04:53:00,
2013-07-20 22:02:00,51.0,-99.9,29.79,West,274,3.0,7.0,-999,-99.99,,,-99.99,,2013-07-21 05:02:00,
2013-07-20 22:32:00,51.0,-99.9,29.80,West,263,3.0,6.0,-999,-99.99,,,-99.99,,2013-07-21 05:32:00,
2013-07-20 22:42:00,51.0,-99.9,29.80,WNW,289,4.0,7.0,-999,-99.99,,,-99.99,,2013-07-21 05:42:00,
2013-07-20 22:52:00,51.0,-99.9,29.80,WNW,295,5.0,8.0,-999,-99.99,,,-99.99,,2013-07-21 05:52:00,
2013-07-20 23:01:00,51.0,-99.9,29.80,NW,306,3.0,6.0,-999,-99.99,,,-99.99,,2013-07-21 06:01:00,
2013-07-20 23:43:00,52.0,-99.9,29.80,WNW,289,4.0,9.0,-999,-99.99,,,-99.99,,2013-07-21 06:43:00,